Tracking 19193 objects as of 24-Jun-2018
HD Live streaming from Space Station
objects crossing your sky now

FENGYUN 1C DEB

Track FENGYUN 1C DEB now!
10-day predictions


NORAD ID: 41011
Int'l Code: 1999-025EXR
Perigee: 546.2 km
Apogee: 1,070.4 km
Inclination: 99.2 °
Period: 100.9 minutes
Semi major axis: 7179 km
RCS: Unknown
Launch date: May 10, 1999
Source: People's Republic of China (PRC)
Launch site: Taiyaun Space Center, China (TSC)

Note: This is SATELLITE DEBRIS
aabbcc
Your satellite tracking list
Your tracking list is empty




NASA's NSSDC Master Catalog

Two Line Element Set (TLE):
1 41011U 99025EXR 18174.82097757 +.00000209 +00000-0 +55815-4 0  9997
2 41011 099.1912 031.6093 0365083 359.6938 000.3965 14.27181061181217
Source of the keplerian elements: AFSPC